Regional Weather Roundup
Issued by NWS Huntsville, AL

Home | Current Version | Previous Version | Text Only | Print | Product List | Glossary On
Versions: 1 2 3 4 5 6 7 8 9 10 11 12 13 14 15 16 17 18 19 20 21 22 23 24 25 26 27 28 29 30 31 32 33 34 35 36 37 38 39 40 41 42 43 44 45 46 47 48 49 50
000
ASUS44 KHUN 251310
RWRHUN

WEATHER ROUNDUP FOR THE TENNESSEE VALLEY
NATIONAL WEATHER SERVICE HUNTSVILLE AL
800 AM CDT MON MAY 25 2015

ALZ001>004-251400-
NORTHWEST ALABAMA

CITY           SKY/WX    TMP DP  RH WIND       PRES   REMARKS
COURTLAND HCN    N/A     68 N/A N/A SE7         N/A
BANKHEAD NF      N/A     66  64  94 E1          N/A
RUSSELLVILLE     N/A     68 N/A N/A MISG        N/A
SHOALS AIRPORT HVY RAIN  68  65  90 E3        30.16S FOG
SHOALS TVA RES   N/A     66 N/A N/A MISG        N/A
$$

ALZ005>007-016-251400-
NORTH CENTRAL ALABAMA

CITY           SKY/WX    TMP DP  RH WIND       PRES   REMARKS
CULLMAN AG STN   N/A     68 N/A N/A SE3         N/A
DECATUR AP     LGT RAIN  69  63  81 SE7       30.17S
HUNTSVILLE AP  CLOUDY    72  62  71 SE9       30.17S
HUN NWS/UAH      N/A     71  60  68 SE10        N/A
MERIDIANVILLE  CLOUDY    70  55  60 SE8       30.18S
REDSTONE ARSN  CLOUDY    71  63  75 SE9       30.16F
VINEMONT AP    CLOUDY    68  62  79 SE7       30.20S
$$

ALZ008>010-251400-
NORTHEAST ALABAMA

CITY           SKY/WX    TMP DP  RH WIND       PRES   REMARKS
ALBERTVILLE    CLOUDY    68  66  94 SE12      30.20S
FORT PAYNE     PTSUNNY   70  59  68 CALM      30.24R
SCOTTSBORO HCN   N/A     72 N/A N/A MISG        N/A
VALLEY HEAD      N/A     68 N/A N/A MISG        N/A
$$

TNZ076-096-097-251400-
SOUTHEASTERN MIDDLE TENNESSEE

CITY           SKY/WX    TMP DP  RH WIND       PRES   REMARKS
TULLAHOMA      MOSUNNY   70  57  64 SE8       30.21R
WINCHESTER     MOSUNNY   72  61  68 SE10      30.21S
$$

...SURROUNDING SITES...

CITY           SKY/WX    TMP DP  RH WIND       PRES   REMARKS
ATLANTA        CLOUDY    69  62  78 SE7       30.30R
ANNISTON       CLOUDY    72  64  76 SE7       30.23R
BIRMINGHAM     CLOUDY    71  64  78 SE10      30.20S
CHATTANOOGA    CLOUDY    70  61  73 VRB7      30.26R
CORINTH        LGT RAIN  70  66  88 SE6       30.10R
DALTON         CLOUDY    70  63  78 SE9       30.28R
GADSDEN        CLOUDY   N/A N/A N/A SE7       30.21S
GOLDEN TRNGL   CLOUDY    72  70  94 SE12      30.09R
HALEYVILLE     LGT RAIN  66  66 100 SE9       30.18R
JACKSON TN     CLOUDY    69  66  90 S5        30.09S
LEWISBURG      PTSUNNY   67  62  84 CALM      30.17R
MEMPHIS        CLOUDY    71  67  87 S6        30.06R
NASHVILLE      CLOUDY    67  64  90 S5        30.18R
OXFORD MS      CLOUDY    66  64  94 SE8       30.10R
ROME           CLOUDY    70  64  81 SE12      30.26R
SAVANNAH       CLOUDY    66  32  28 CALM      30.12S
TUPELO         HVY RAIN  68  66  93 E3        30.10F FOG
TUSCALOOSA     CLOUDY    73  66  78 SE8       30.14S
$$

...GULF COAST WEATHER...

CITY           SKY/WX    TMP DP  RH WIND       PRES   REMARKS
GULFPORT       CLOUDY    79  73  82 SE7       30.09R
PASCAGOULA     CLOUDY    78  73  84 SE9       30.11R
MOBILE         CLOUDY    76  73  91 SE7       30.13R FOG
GULF SHORES    CLOUDY    78  75  89 SE9       30.12R
PENSACOLA      CLOUDY    81  75  82 SE17      30.12S
DESTIN         PTSUNNY   81  75  82 SE15      30.14S
PANAMA CITY    SUNNY     79  74  84 SE8       30.16R
APPALACHICOLA  PTSUNNY   84  74  71 SE14      30.16R HX  91
$$




USA.gov is the U.S. government's official web portal to all federal, state and local government web resources and services.